Probability
3 3 3 3 2 1 0 0 0 0 0 0 0 0 0 0 0 0 0 0 1 2 3 3 3 3 3 2 2 2 1 0 0 0 0 0 0 0 0 0 0 0 0
3 3 3 3 3 1 1 0 0 0 0 0 0 0 0 0 0 0 0 0 1 2 3 3 2 2 2 1 1 1 0 0 0 0 0 0 0 0 0 0 0 0 0
3 3 3 3 3 3 2 1 0 0 0 0 0 0 0 0 0 0 0 0 1 2 2 1 1 1 1 0 0 0 0 0 0 0 0 0 0 0 0 0 0 0 0
3 3 3 3 3 3 2 1 0 0 0 0 0 0 0 0 0 0 0 0 1 1 1 0 0 0 0 0 0 0 0 0 0 0 0 0 0 0 0 0 0 0 0
2 3 3 3 2 1 1 0 0 0 0 0 0 0 0 0 0 0 0 0 0 0 0 0 0 0 0 0 0 0 0 0 0 0 0 0 0 0 0 0 0 0 0
1 1 2 2 1 0 0 0 0 0 0 0 0 0 0 0 0 0 0 0 0 0 0 0 0 0 0 0 0 0 0 0 0 0 0 0 0 0 0 0 0 0 0
0 0 1 1 0 0 0 0 0 0 0 0 0 0 0 0 0 0 0 0 0 0 0 0 0 0 0 0 0 0 0 0 0 0 0 0 0 0 0 0 0 0 0
0 0 0 0 0 0 0 0 0 0 0 0 0 0 0 0 0 0 0 0 0 0 0 0 0 0 0 0 0 0 0 0 0 0 0 0 0 0 0 0 0 0 0
0 0 0 0 0 0 0 0 0 0 0 0 0 0 0 0 0 0 0 0 0 0 0 0 0 0 0 0 0 0 0 0 0 0 0 0 0 0 0 0 0 0 0
0 0 0 0 0 0 0 0 0 0 0 0 0 0 0 0 0 0 0 0 0 0 0 0 0 0 0 0 0 0 0 0 0 1 0 0 1 0 0 0 0 0 0
1 0 0 0 0 0 0 0 0 0 1 1 1 0 0 0 0 0 0 0 0 0 0 0 0 0 0 0 0 0 0 0 0 0 0 0 0 0 0 0 0 0 0
2 1 0 0 0 0 0 0 0 0 1 2 2 1 1 0 0 0 0 0 0 0 0 0 0 0 0 0 0 0 0 0 0 0 0 0 0 0 0 0 0 0 0
2 1 0 0 0 0 0 0 0 0 1 2 3 3 2 2 1 1 0 0 0 0 0 0 0 0 0 0 0 0 0 0 0 0 0 0 0 0 0 0 0 0 0
1 1 0 0 0 0 0 0 0 0 0 1 2 3 3 3 2 1 0 0 0 0 0 0 0 0 0 0 0 0 0 0 0 0 0 0 0 0 0 0 0 0 0
0 0 0 0 0 0 0 0 0 0 0 0 1 3 3 3 3 2 1 0 0 0 0 0 0 0 0 0 0 0 0 0 0 0 0 0 0 0 0 0 0 0 0
0 0 0 0 0 0 0 0 0 0 0 0 1 2 3 3 3 3 2 0 0 0 0 0 0 0 0 0 0 0 0 0 0 0 0 0 0 0 0 0 0 0 0
0 0 0 0 0 0 0 0 0 0 0 0 0 1 2 3 3 3 2 0 0 0 0 0 0 0 0 0 0 0 0 0 0 0 0 0 0 0 0 0 0 0 0
0 0 0 0 0 0 0 0 0 0 0 0 0 0 1 1 2 2 1 0 0 0 0 0 0 0 0 0 0 0 0 0 0 0 0 0 0 0 0 0 0 0 0
0 0 0 0 0 0 0 0 0 0 0 0 0 0 0 0 1 1 1 0 0 0 0 0 0 0 0 0 0 0 0 0 0 0 0 0 0 0 0 0 0 0 0
0 0 0 0 0 0 0 0 0 0 0 0 0 0 0 0 0 0 0 0 0 0 0 0 0 0 0 0 0 0 0 0 0 0 0 0 0 0 0 0 0 0 0
0 0 0 0 0 0 0 0 0 0 0 0 0 0 0 0 0 0 0 0 0 0 0 0 0 0 0 0 0 0 0 0 0 0 0 0 0 0 0 0 0 0 0
0 0 0 0 0 0 0 0 0 0 0 0 0 0 0 0 0 0 0 0 0 0 0 0 0 0 0 0 0 0 0 0 0 0 0 0 0 0 0 0 0 0 0
0 0 0 0 0 0 0 0 0 0 0 0 0 0 0 0 0 0 0 0 0 0 0 0 0 0 0 0 0 0 0 0 0 0 0 0 0 0 0 0 0 0 0
0 0 0 0 0 0 0 0 0 0 0 0 0 0 0 0 0 0 0 0 0 0 0 0 0 0 0 0 0 0 0 0 0 0 0 0 0 0 0 0 0 0 0
0 0 0 0 0 0 0 0 0 0 0 0 0 0 0 0 0 0 0 0 0 0 0 0 0 0 0 0 0 0 0 0 0 0 0 0 0 0 0 0 0 0 0
0 0 0 0 0 0 0 0 0 0 0 0 0 0 0 0 0 0 0 0 0 0 0 0 0 0 0 0 0 0 0 0 0 0 0 0 0 0 0 0 0 0 0
Wind_Speed
4 4 3 3 3 2 2 2 2 3 3 3 3 3 3 3 3 3 3 7 7 6 6 6 6 6 7 8 8 8 9 9 9 10 10 11 11 11 11 12 13 13 13
4 4 3 3 3 2 2 2 3 2 2 2 3 3 3 3 3 3 3 4 6 7 6 6 6 6 7 8 8 9 9 10 10 11 11 12 12 12 12 12 13 14 14
5 4 3 3 3 2 3 2 3 2 2 2 3 3 2 2 2 3 2 2 3 5 6 6 6 7 7 8 9 9 10 10 11 11 12 12 13 13 13 13 13 14 14
4 4 3 3 3 3 2 2 2 2 2 2 3 3 2 2 2 2 2 2 2 2 4 6 7 7 8 8 9 10 10 11 11 12 12 13 13 13 13 13 14 14 15
4 4 3 3 3 3 2 2 2 2 2 2 2 2 2 2 2 2 2 2 2 2 2 4 5 6 8 8 9 10 11 11 12 12 13 13 13 14 14 14 14 15 15
3 3 3 4 4 3 3 3 3 2 2 2 2 2 1 2 2 2 1 1 1 1 1 2 2 3 6 8 9 10 11 12 12 13 13 13 14 14 14 15 15 16 16
3 3 3 4 4 3 3 4 3 4 2 2 2 2 2 2 2 2 1 1 1 0 1 1 2 3 3 5 8 10 11 12 12 13 13 13 14 14 14 15 15 16 16
3 3 4 4 4 4 4 4 4 2 2 2 1 2 2 3 3 2 2 2 1 1 1 1 2 3 4 3 6 9 11 12 13 13 13 14 14 14 15 15 16 16 17
3 3 4 4 4 4 4 5 4 4 3 2 1 2 2 2 1 2 3 2 2 2 1 1 2 3 4 4 4 6 11 13 13 14 14 14 15 15 15 16 16 17 17
3 3 4 4 4 3 4 4 4 3 4 3 2 1 2 1 2 1 2 2 2 2 2 2 2 3 3 4 5 8 11 13 13 14 15 15 16 15 16 17 17 17 17
3 3 3 3 3 3 3 4 4 4 3 3 3 2 1 1 2 2 2 2 2 2 2 3 2 2 3 4 4 8 12 12 13 14 15 16 16 16 17 17 17 18 18
2 3 3 3 3 3 3 3 3 4 3 3 2 2 1 1 1 2 3 3 3 2 2 2 2 3 3 4 6 10 12 12 13 14 15 16 16 17 17 17 17 18 18
3 4 4 3 3 3 3 3 3 3 3 3 3 2 1 1 1 1 2 2 3 2 2 2 2 3 3 5 5 11 10 11 13 14 14 15 16 16 17 17 17 17 18
2 3 4 4 4 4 4 4 3 3 2 3 2 2 1 1 1 1 1 2 3 3 3 2 2 2 4 5 7 11 8 11 13 14 14 15 15 16 16 17 17 17 17
2 3 4 4 4 4 4 4 3 3 3 2 2 2 2 1 1 1 1 2 2 3 3 2 2 3 5 5 8 8 8 11 13 14 14 14 15 16 16 16 16 17 17
2 3 4 3 4 4 4 4 3 3 3 3 2 2 2 1 1 1 1 1 2 3 4 3 4 5 6 6 8 8 8 12 12 14 14 14 15 15 15 16 16 17 17
2 3 4 4 4 4 4 4 4 4 4 3 3 2 2 2 1 1 1 1 2 2 4 4 4 5 7 7 7 7 7 8 7 12 14 14 15 15 15 16 16 17 17
2 3 3 4 4 4 4 4 4 4 4 3 3 3 2 1 2 1 1 2 2 2 4 5 5 5 7 7 8 8 7 7 8 11 14 15 15 15 15 15 16 16 17
2 2 3 4 4 4 4 4 4 4 4 3 3 3 2 2 2 1 2 2 2 2 3 4 5 4 5 6 7 7 8 7 8 8 11 13 14 15 14 15 15 16 16
2 2 3 3 4 4 4 4 4 4 3 3 2 2 2 2 2 2 2 2 2 3 3 3 4 4 5 6 6 6 7 7 8 7 9 11 13 13 13 14 15 15 16
2 2 2 3 3 3 3 4 4 4 4 3 2 2 2 2 2 2 1 2 2 2 2 3 4 4 5 5 6 6 7 8 8 6 8 8 8 7 8 10 12 15 16
1 2 2 3 3 3 4 6 5 4 4 3 3 2 2 2 1 1 2 3 3 3 3 3 4 5 6 6 6 6 7 7 6 5 8 8 7 8 7 7 12 16 16
1 2 2 3 3 3 5 5 6 4 3 3 3 2 1 1 1 1 1 2 2 3 4 4 5 6 6 6 7 7 7 7 8 7 8 8 7 8 8 8 14 15 15
1 2 2 2 2 3 4 4 5 3 3 2 2 2 2 1 1 1 1 2 2 3 3 4 4 5 6 6 6 7 7 7 7 5 6 6 7 8 9 8 11 13 15
1 1 1 2 2 3 4 4 3 3 2 2 2 1 1 1 1 1 1 1 2 3 3 4 5 5 6 7 6 4 5 5 6 5 4 5 6 8 8 7 8 13 14
1 1 1 1 2 2 3 4 3 2 2 2 1 1 1 1 0 1 1 1 2 3 4 4 4 4 4 4 5 4 4 5 5 5 4 5 6 7 7 6 7 9 9
Wind_Direction
160 156 151 149 150 148 150 145 141 129 130 129 127 130 127 116 108 100 87 57 48 52 54 49 41 35 29 20 14 10 4 358 354 350 345 340 336 333 331 329 327 324 323
162 163 154 151 150 153 149 153 140 138 132 136 134 130 124 120 109 104 93 84 60 49 50 43 34 28 23 15 11 5 358 352 348 345 341 337 333 329 327 325 323 321 321
165 162 156 155 153 153 153 148 138 141 134 138 140 133 126 123 121 107 94 83 88 63 50 41 34 25 18 11 4 357 351 346 344 342 340 337 334 329 325 323 322 321 320
167 162 159 156 155 155 156 150 153 153 150 157 153 145 145 144 136 114 103 88 70 66 61 42 30 22 14 6 360 354 349 345 342 340 338 335 332 330 327 325 323 322 320
168 167 160 153 158 157 157 155 159 164 158 153 149 152 159 163 151 149 126 99 74 49 43 51 32 18 7 360 356 351 347 342 340 338 336 332 329 327 326 325 323 322 321
164 167 161 157 160 159 157 161 153 151 150 148 151 151 175 178 185 174 162 141 100 56 26 8 3 14 4 356 352 347 344 339 337 335 332 330 328 327 325 325 323 322 320
167 167 165 163 169 171 169 165 156 153 145 146 163 172 182 196 205 197 213 220 164 23 1 350 343 340 343 350 349 341 339 337 335 334 333 332 330 328 326 324 323 322 320
172 172 175 173 175 174 172 172 165 161 146 171 209 200 204 193 197 216 225 234 256 262 292 318 333 336 333 334 343 339 337 336 335 335 334 332 330 328 326 325 323 321 321
179 175 181 181 178 179 178 179 178 176 169 170 222 262 248 239 191 189 214 230 257 270 262 278 305 318 325 328 329 337 336 334 333 332 333 331 328 326 325 324 322 321 320
184 180 179 181 176 178 178 178 184 185 181 177 177 267 315 335 264 234 199 215 257 265 269 274 293 303 317 322 326 332 335 332 331 330 330 330 328 324 323 323 322 320 319
181 178 177 179 175 177 181 181 180 182 191 191 184 184 192 231 265 265 259 254 258 251 274 281 287 299 317 322 320 334 330 329 330 330 329 327 327 325 322 322 322 321 318
183 178 176 175 173 173 175 183 180 180 186 190 190 191 193 205 225 259 273 286 289 282 279 283 289 305 320 321 324 333 326 327 328 328 327 326 325 326 325 321 319 318 318
196 190 185 183 176 174 175 176 173 180 178 183 192 193 198 228 260 273 283 290 289 293 274 260 287 306 318 318 320 330 320 326 327 325 324 323 324 324 325 326 325 323 320
205 188 187 184 179 173 173 174 171 173 172 181 188 191 188 192 211 246 270 280 287 282 267 277 298 306 321 318 327 322 319 325 325 323 322 322 323 324 323 324 325 325 324
202 185 181 177 175 173 172 169 170 168 166 173 181 186 193 184 195 222 233 242 276 291 284 295 306 311 321 316 323 317 317 324 321 320 320 321 322 322 323 325 325 325 324
201 186 178 169 167 170 166 165 164 166 165 164 173 185 192 194 189 216 229 238 255 274 281 299 303 311 315 311 317 316 316 319 315 320 320 321 322 322 324 325 325 325 324
194 192 179 168 170 170 170 170 170 168 173 170 169 178 196 198 201 217 235 244 262 274 279 293 299 309 310 312 315 314 315 314 313 319 318 320 322 323 324 325 325 325 325
189 191 180 172 171 169 168 171 171 172 176 178 176 176 190 205 217 226 240 255 271 282 284 291 300 305 308 312 313 314 317 313 313 319 319 320 322 323 324 326 326 326 326
174 174 178 176 173 169 166 171 173 174 178 180 179 184 194 211 225 233 254 264 275 285 285 287 298 307 308 315 314 314 316 315 317 317 317 319 321 321 322 325 326 326 326
168 175 179 177 176 171 168 170 171 172 170 172 182 193 203 216 236 242 253 271 284 287 291 292 298 307 312 320 318 319 321 322 317 319 321 319 319 320 319 323 325 326 327
167 167 168 169 172 172 169 171 168 171 171 173 181 193 206 221 261 273 279 281 285 286 294 300 304 309 314 321 323 322 317 319 314 320 323 319 319 316 319 321 325 329 329
147 158 169 172 177 175 164 167 171 172 173 177 178 188 196 203 219 244 281 293 297 291 293 295 301 305 311 316 319 317 318 321 319 332 325 316 318 315 320 322 330 331 330
150 165 172 177 182 172 171 174 174 171 174 179 183 186 191 190 214 246 268 270 285 303 298 293 292 300 306 310 311 311 313 313 307 317 318 308 318 315 318 320 325 328 331
167 175 176 179 176 170 171 169 166 171 167 175 186 194 197 199 211 285 291 301 309 310 306 296 293 299 306 309 306 305 304 306 304 308 319 304 316 317 316 316 326 329 331
160 167 169 171 172 165 164 164 164 161 163 165 171 189 194 206 190 325 297 307 315 324 334 324 317 313 317 321 321 315 318 319 318 320 334 314 314 316 311 313 326 328 327
150 139 144 165 175 176 164 165 170 162 160 155 166 178 181 228 233 295 290 296 310 325 329 331 330 334 329 331 330 320 314 315 319 314 338 327 317 327 315 311 324 328 329